| time (UTC) | temp C | wind direction | speed KPH | gust KPH | rain 1hr cm | rain 24hr cm | rain mn cm | humidity % | barometer mb |
| 20260507143103 | 11 | 360 | 8.0 | 22.5 | 0.00 | 0.03 | 0.00 | 50 | 1016.3 |
| 20260507141558 | 10 | 360 | 11.3 | 22.5 | 0.00 | 0.03 | 0.00 | 49 | 1016.3 |
| 20260507140054 | 9 | 360 | 8.0 | 24.1 | 0.00 | 0.03 | 0.00 | 55 | 1016.2 |
| 20260507134559 | 8 | 360 | 9.7 | 24.1 | 0.00 | 0.03 | 0.00 | 56 | 1016.2 |
| 20260507133059 | 8 | 360 | 9.7 | 20.9 | 0.00 | 0.03 | 0.00 | 58 | 1016.2 |
| 20260507131615 | 7 | 360 | 6.4 | 20.9 | 0.00 | 0.03 | 0.00 | 62 | 1016.3 |
| 20260507130057 | 7 | 360 | 6.4 | 19.3 | 0.00 | 0.03 | 0.00 | 65 | 1016.4 |
| 20260507124557 | 6 | 360 | 6.4 | 12.9 | 0.00 | 0.03 | 0.00 | 71 | 1016.2 |
| 20260507123105 | 6 | 360 | 3.2 | 16.1 | 0.00 | 0.03 | 0.00 | 73 | 1016.3 |
| 20260507121601 | 5 | 17 | 8.0 | 17.7 | 0.00 | 0.03 | 0.00 | 74 | 1016.2 |
| 20260507120057 | 5 | 360 | 4.8 | 12.9 | 0.00 | 0.03 | 0.00 | 77 | 1016.2 |
| 20260507114559 | 5 | 360 | 4.8 | 12.9 | 0.00 | 0.03 | 0.00 | 79 | 1016.2 |
| 20260507113057 | 4 | 360 | 3.2 | 8.0 | 0.00 | 0.03 | 0.00 | 80 | 1016.3 |
| 20260507111555 | 3 | 360 | 3.2 | 8.0 | 0.00 | 0.03 | 0.00 | 80 | 1016.1 |
| 20260507110107 | 3 | 0 | 3.2 | 8.0 | 0.00 | 0.03 | 0.00 | 80 | 1016.2 |
| 20260507104634 | 3 | 360 | 1.6 | 6.4 | 0.00 | 0.03 | 0.00 | 80 | 1016.0 |
| 20260507103057 | 3 | 0 | 3.2 | 14.5 | 0.00 | 0.03 | 0.00 | 80 | 1015.6 |
| 20260507101558 | 4 | 360 | 3.2 | 9.7 | 0.00 | 0.03 | 0.00 | 80 | 1015.6 |
| 20260507100056 | 4 | 360 | 3.2 | 9.7 | 0.00 | 0.03 | 0.00 | 81 | 1015.7 |
| 20260507094610 | 4 | 0 | 0.0 | 8.0 | 0.00 | 0.03 | 0.00 | 81 | 1015.7 |
| 20260507093101 | 4 | 360 | 0.0 | 8.0 | 0.00 | 0.03 | 0.00 | 81 | 1015.5 |
| 20260507091635 | 4 | 0 | 1.6 | 6.4 | 0.00 | 0.03 | 0.00 | 82 | 1015.4 |
| 20260507090106 | 4 | 360 | 1.6 | 6.4 | 0.00 | 0.03 | 0.00 | 83 | 1015.5 |
| 20260507084558 | 4 | 0 | 0.0 | 4.8 | 0.00 | 0.05 | 0.00 | 83 | 1015.3 |
| 20260507083056 | 4 | 0 | 0.0 | 8.0 | 0.00 | 0.05 | 0.00 | 83 | 1015.3 |
| 20260507081557 | 4 | 0 | 0.0 | 8.0 | 0.00 | 0.05 | 0.00 | 83 | 1015.4 |
| 20260507074559 | 4 | 360 | 1.6 | 4.8 | 0.00 | 0.15 | 0.00 | 82 | 1015.5 |
| 20260507073102 | 3 | 360 | 1.6 | 6.4 | 0.00 | 0.15 | 0.00 | 82 | 1015.4 |
| 20260507071600 | 3 | 360 | 1.6 | 6.4 | 0.00 | 0.15 | 0.00 | 81 | 1015.4 |
| 20260507070107 | 3 | 0 | 0.0 | 6.4 | 0.00 | 0.15 | 0.00 | 80 | 1015.4 |
| 20260507064600 | 4 | 0 | 0.0 | 4.8 | 0.00 | 0.28 | 0.00 | 80 | 1015.6 |
| 20260507063100 | 4 | 360 | 0.0 | 4.8 | 0.00 | 0.28 | 0.00 | 79 | 1015.7 |
| 20260507061558 | 4 | 0 | 0.0 | 0.0 | 0.00 | 0.28 | 0.00 | 79 | 1015.6 |
| 20260507060104 | 4 | 0 | 0.0 | 0.0 | 0.00 | 0.28 | 0.00 | 78 | 1015.8 |
| 20260507054600 | 5 | 0 | 0.0 | 0.0 | 0.00 | 0.64 | 0.00 | 78 | 1015.7 |
| 20260507053055 | 5 | 0 | 0.0 | 0.0 | 0.00 | 0.64 | 0.00 | 78 | 1015.9 |
| 20260507051557 | 5 | 0 | 0.0 | 1.6 | 0.00 | 0.64 | 0.00 | 77 | 1016.1 |
| 20260507050054 | 5 | 0 | 0.0 | 3.2 | 0.00 | 0.64 | 0.00 | 76 | 1016.1 |
| 20260507044555 | 5 | 0 | 0.0 | 0.0 | 0.00 | 0.86 | 0.00 | 75 | 1015.9 |
| 20260507043059 | 5 | 0 | 0.0 | 0.0 | 0.00 | 0.86 | 0.00 | 75 | 1015.8 |
| 20260507041558 | 6 | 0 | 0.0 | 0.0 | 0.00 | 0.86 | 0.00 | 75 | 1015.8 |
| 20260507040103 | 6 | 0 | 0.0 | 0.0 | 0.00 | 0.86 | 0.00 | 74 | 1015.7 |
| 20260507034600 | 6 | 0 | 0.0 | 0.0 | 0.00 | 0.89 | 0.86 | 74 | 1015.6 |
| 20260507033055 | 6 | 0 | 0.0 | 0.0 | 0.00 | 0.89 | 0.86 | 72 | 1015.6 |
| 20260507031555 | 7 | 0 | 0.0 | 0.0 | 0.00 | 0.89 | 0.86 | 72 | 1015.7 |
| 20260507030055 | 7 | 0 | 0.0 | 0.0 | 0.00 | 0.89 | 0.86 | 70 | 1015.7 |
| 20260507024559 | 7 | 0 | 0.0 | 0.0 | 0.00 | 1.14 | 0.86 | 69 | 1015.9 |
| 20260507023055 | 8 | 0 | 0.0 | 0.0 | 0.00 | 1.14 | 0.86 | 68 | 1015.8 |
| 20260507021600 | 8 | 0 | 0.0 | 0.0 | 0.00 | 1.14 | 0.86 | 66 | 1016.0 |
| 20260507020058 | 9 | 0 | 0.0 | 0.0 | 0.00 | 1.14 | 0.86 | 64 | 1015.8 |
| 20260507014558 | 10 | 0 | 0.0 | 0.0 | 0.00 | 1.32 | 0.86 | 63 | 1015.4 |
| 20260507013053 | 10 | 0 | 0.0 | 0.0 | 0.00 | 1.32 | 0.86 | 62 | 1015.4 |
| 20260507011601 | 11 | 0 | 0.0 | 0.0 | 0.00 | 1.32 | 0.86 | 61 | 1015.4 |
| 20260507010113 | 11 | 0 | 0.0 | 3.2 | 0.00 | 1.32 | 0.86 | 61 | 1015.4 |
| 20260507004557 | 11 | 360 | 1.6 | 9.7 | 0.00 | 1.80 | 0.86 | 60 | 1015.2 |
| 20260507003055 | 11 | 360 | 0.0 | 8.0 | 0.00 | 1.80 | 0.86 | 59 | 1014.9 |
| 20260507001601 | 12 | 360 | 3.2 | 9.7 | 0.00 | 1.80 | 0.86 | 58 | 1014.7 |
| 20260507000104 | 12 | 360 | 3.2 | 8.0 | 0.00 | 1.80 | 0.86 | 57 | 1014.7 |
| 20260506234611 | 12 | 360 | 3.2 | 9.7 | 0.00 | 2.11 | 0.86 | 56 | 1014.6 |
| 20260506233103 | 12 | 360 | 1.6 | 12.9 | 0.00 | 2.11 | 0.86 | 56 | 1014.7 |
| 20260506231554 | 12 | 360 | 4.8 | 12.9 | 0.00 | 2.11 | 0.86 | 54 | 1014.6 |
| 20260506230056 | 12 | 360 | 4.8 | 14.5 | 0.00 | 2.11 | 0.86 | 53 | 1014.7 |
| 20260506224557 | 13 | 360 | 6.4 | 16.1 | 0.00 | 2.51 | 0.86 | 54 | 1015.0 |
| 20260506223100 | 13 | 360 | 3.2 | 14.5 | 0.00 | 2.51 | 0.86 | 54 | 1015.0 |
| 20260506221557 | 13 | 360 | 3.2 | 11.3 | 0.00 | 2.51 | 0.86 | 56 | 1015.2 |
| 20260506220057 | 13 | 360 | 3.2 | 16.1 | 0.00 | 2.51 | 0.86 | 57 | 1015.1 |
| 20260506214601 | 13 | 360 | 1.6 | 9.7 | 0.00 | 2.51 | 0.86 | 58 | 1014.8 |
| 20260506213057 | 13 | 360 | 6.4 | 12.9 | 0.00 | 2.51 | 0.86 | 58 | 1014.8 |
| 20260506211556 | 13 | 360 | 6.4 | 12.9 | 0.00 | 2.51 | 0.86 | 56 | 1014.6 |
| 20260506210056 | 13 | 360 | 4.8 | 9.7 | 0.00 | 2.51 | 0.86 | 54 | 1014.7 |
| 20260506204608 | 13 | 360 | 4.8 | 12.9 | 0.00 | 2.74 | 0.86 | 55 | 1014.6 |
| 20260506203055 | 13 | 360 | 1.6 | 9.7 | 0.00 | 2.74 | 0.86 | 55 | 1014.5 |
| 20260506201554 | 13 | 360 | 4.8 | 14.5 | 0.00 | 2.74 | 0.86 | 56 | 1014.5 |
| 20260506200057 | 13 | 360 | 6.4 | 17.7 | 0.00 | 2.74 | 0.86 | 55 | 1014.3 |
| 20260506194554 | 13 | 360 | 4.8 | 16.1 | 0.00 | 2.90 | 0.86 | 56 | 1014.2 |
| 20260506193057 | 13 | 360 | 6.4 | 17.7 | 0.00 | 2.90 | 0.86 | 56 | 1014.3 |
| 20260506191558 | 13 | 360 | 6.4 | 14.5 | 0.00 | 2.90 | 0.86 | 54 | 1014.5 |
| 20260506190054 | 13 | 360 | 6.4 | 20.9 | 0.00 | 2.90 | 0.86 | 53 | 1014.5 |
| 20260506184554 | 15 | 360 | 8.0 | 20.9 | 0.00 | 2.90 | 0.86 | 53 | 1014.5 |
| 20260506183057 | 15 | 360 | 8.0 | 17.7 | 0.00 | 2.90 | 0.86 | 52 | 1014.0 |
| 20260506181557 | 14 | 360 | 4.8 | 16.1 | 0.00 | 2.90 | 0.86 | 58 | 1014.2 |
| 20260506180054 | 14 | 360 | 9.7 | 17.7 | 0.00 | 2.90 | 0.86 | 54 | 1014.4 |
| 20260506174606 | 15 | 360 | 6.4 | 17.7 | 0.00 | 2.92 | 0.86 | 56 | 1014.5 |
| 20260506173125 | 15 | 360 | 4.8 | 14.5 | 0.00 | 2.92 | 0.86 | 57 | 1014.5 |
| 20260506171600 | 14 | 360 | 3.2 | 16.1 | 0.00 | 2.92 | 0.86 | 56 | 1014.5 |
| 20260506170057 | 15 | 360 | 6.4 | 17.7 | 0.00 | 2.92 | 0.86 | 55 | 1014.5 |
| 20260506164559 | 15 | 360 | 8.0 | 17.7 | 0.00 | 2.92 | 0.86 | 56 | 1014.2 |
| 20260506163100 | 15 | 360 | 4.8 | 17.7 | 0.00 | 2.92 | 0.86 | 58 | 1014.3 |
| 20260506161609 | 15 | 360 | 4.8 | 12.9 | 0.00 | 2.92 | 0.86 | 63 | 1014.6 |
| 20260506160111 | 13 | 360 | 3.2 | 9.7 | 0.00 | 2.92 | 0.86 | 64 | 1014.3 |
| 20260506154600 | 12 | 360 | 8.0 | 16.1 | 0.03 | 2.92 | 0.86 | 63 | 1014.3 |
| 20260506153056 | 12 | 360 | 6.4 | 17.7 | 0.03 | 2.92 | 0.86 | 66 | 1014.4 |
| 20260506151555 | 12 | 360 | 8.0 | 16.1 | 0.03 | 2.92 | 0.86 | 66 | 1013.9 |
| 20260506144611 | 11 | 360 | 6.4 | 19.3 | 0.00 | 2.90 | 0.84 | 73 | 1013.4 |